Location: Christianberg
(48.9086°N, 14.0209°E)
Time: 22:59:36
(UTC+00:00)

Cosmos 1898 Rocket - Pass Details

Date: 20 June 2021
Orbit: 754 x 783 km, 74.0° (Epoch: 04 August)

Event Time Altitude Azimuth Distance (km) Brightness Sun altitude
Rises 00:26:01 0° 331° (NNW) 3,249 7.4 -15.5°
Reaches altitude 10° 00:28:30 10° 325° (NW) 2,313 6.5 -15.3°
Maximum altitude 00:33:24 42° 256° (WSW) 1,080 4.0 -15.0°
Enters shadow 00:36:07 23° 200° (SSW) 1,561 4.5 -14.9°
